User: anonymous   Login
Location: Unspecified
(0.0000°N, 0.0000°E)
Time: 04:16:16
(UTC+02:00)
Language:

PSLV R/B - Orbit

View from above orbital plane
View from above orbital plane
View from above satellite
View from above satellite

Ground track
Ground track

The orbit data is extracted from the following two-line orbital elements,

1 29713U 07001E   14295.05941537  .00003650  00000-0  45296-3 0  4634
2 29713 097.6558 284.0536 0027180 041.4267 318.9002 14.82959281420293
Epoch (UTC): 22 October 2014 01:25:33
Eccentricity: 0.0027180
inclination: 97.6558°
perigee height: 601 km
apogee height: 639 km
right ascension of ascending node: 284.0536°
argument of perigee: 41.4267°
revolutions per day: 14.82959281
mean anomaly at epoch: 318.9002°
orbit number at epoch: 42029

The dashed part of the orbit path shows where the satellite is in the earth's shadow,  

DLR